Terug naar catalogus

STARLINK-1573

ActiefCommunicatieVLEO
NORAD 46061·PAYLOAD·🇺🇸 United States

Gelanceerd Aug 7, 2020 vanaf Cape Canaveral Space Force Station

Loading…

Volgende Passages (komende 24 uur)

TLE

VersSource: CelesTrak SupGP

Epoch: Sep 14, 2026, 20:43 UTC

1 46061C 20055AL  26257.86368056 -.00024456  00000+0 -78643-3 0  2573
2 46061  53.1597 313.5192 0001143  82.8309 121.3244 15.31714468    10

Volg STARLINK-1573 in realtime met AllMySat

Download on the App Store